WZZ36ZZ UDYZ-LCPH

Flight info

Callsign WZZ36ZZ
Flight time 2h 27m
Altitude 38000
Route INDUR B374 YAVUZ UB374 ERZ UA4 SIV UT54 HALIL UP29 AYT UM855 TOMBI M855 DASNI M32 TOBAL
Aircraft A320/M-SDE1E2E3FGIJ1J4RWXY/LB1

Departure

Time 2026-04-22 07:53
Airport Zvartnots International Airport (UDYZ)

Arrival

Time 2026-04-22 10:21
Airport Paphos International Airport (LCPH)
Time Latitude Longitude Altitude Speed Heading
2026-04-22 07:25 40.15101 44.40004 2820 ft 0 kts
2026-04-22 07:45 40.15100 44.40004 2820 ft 1 kts
2026-04-22 07:45 40.15076 44.40003 2822 ft 4 kts
2026-04-22 07:45 40.15049 44.40002 2822 ft 4 kts
2026-04-22 07:46 40.15022 44.40002 2820 ft 4 kts
2026-04-22 07:46 40.14999 44.40001 2820 ft 0 kts
2026-04-22 07:48 40.15005 44.40000 2821 ft 2 kts 353°
2026-04-22 07:48 40.15029 44.39947 2820 ft 11 kts 269°
2026-04-22 07:48 40.14998 44.39829 2821 ft 16 kts 250°
2026-04-22 07:49 40.14983 44.39673 2818 ft 19 kts 270°
2026-04-22 07:49 40.14982 44.39471 2816 ft 25 kts 270°
2026-04-22 07:49 40.14981 44.39241 2815 ft 25 kts 269°
2026-04-22 07:49 40.14979 44.39007 2817 ft 25 kts 270°
2026-04-22 07:50 40.14980 44.38778 2814 ft 26 kts 270°
2026-04-22 07:50 40.14978 44.38547 2813 ft 26 kts 269°
2026-04-22 07:50 40.14961 44.38361 2814 ft 17 kts 229°
2026-04-22 07:50 40.14857 44.38271 2810 ft 19 kts 212°
2026-04-22 07:51 40.14748 44.38167 2812 ft 20 kts 234°
2026-04-22 07:51 40.14722 44.37976 2807 ft 23 kts 269°
2026-04-22 07:51 40.14723 44.37749 2803 ft 26 kts 270°
2026-04-22 07:51 40.14724 44.37539 2802 ft 21 kts 273°
2026-04-22 07:52 40.14752 44.37380 2797 ft 14 kts 231°
2026-04-22 07:52 40.14718 44.37434 2794 ft 10 kts 84°
2026-04-22 07:52 40.14719 44.37455 2795 ft 0 kts 88°
2026-04-22 07:52 40.14720 44.37675 2803 ft 59 kts 90°
2026-04-22 07:53 40.14724 44.38487 2812 ft 116 kts 89°
2026-04-22 07:53 40.14732 44.39737 2820 ft 161 kts 89°
2026-04-22 07:53 40.14744 44.41231 3363 ft 161 kts 90°
2026-04-22 07:53 40.14750 44.42683 3990 ft 161 kts 90°
2026-04-22 07:54 40.14750 44.44226 4320 ft 180 kts 94°
2026-04-22 07:54 40.14265 44.45793 4612 ft 200 kts 136°
2026-04-22 07:54 40.12963 44.46606 4903 ft 222 kts 177°
2026-04-22 07:54 40.11429 44.46063 5269 ft 244 kts 217°
2026-04-22 07:55 40.10406 44.44227 5796 ft 262 kts 253°
2026-04-22 07:55 40.10149 44.41845 6636 ft 268 kts 269°
2026-04-22 07:55 40.10232 44.39401 7568 ft 270 kts 274°
2026-04-22 07:55 40.10410 44.36948 8521 ft 272 kts 275°
2026-04-22 07:56 40.10584 44.34475 9445 ft 274 kts 274°
2026-04-22 07:56 40.10720 44.31974 10256 ft 280 kts 273°
2026-04-22 07:56 40.10820 44.29329 10534 ft 303 kts 272°
2026-04-22 07:56 40.10892 44.26515 11014 ft 315 kts 271°
2026-04-22 07:57 40.10944 44.23635 11718 ft 319 kts 271°
2026-04-22 07:57 40.10986 44.20722 12474 ft 322 kts 271°
2026-04-22 07:57 40.11023 44.17781 13229 ft 325 kts 271°
2026-04-22 07:57 40.11058 44.14814 13966 ft 329 kts 271°
2026-04-22 07:58 40.11092 44.11816 14645 ft 331 kts 271°
2026-04-22 07:58 40.11127 44.08798 15321 ft 334 kts 271°
2026-04-22 07:58 40.11163 44.05758 15977 ft 336 kts 271°
2026-04-22 07:58 40.11198 44.02692 16620 ft 339 kts 271°
2026-04-22 07:59 40.11233 43.99596 17272 ft 342 kts 271°
2026-04-22 07:59 40.11271 43.96476 17932 ft 345 kts 271°
2026-04-22 07:59 40.11310 43.93331 18547 ft 348 kts 271°
2026-04-22 07:59 40.11345 43.90161 19159 ft 350 kts 270°
2026-04-22 08:00 40.11376 43.87022 19782 ft 352 kts 270°
2026-04-22 08:00 40.11404 43.83820 20415 ft 353 kts 270°
2026-04-22 08:00 40.11433 43.80603 21021 ft 355 kts 270°
2026-04-22 08:00 40.11462 43.77368 21613 ft 357 kts 270°
2026-04-22 08:01 40.11493 43.74113 22204 ft 359 kts 270°
2026-04-22 08:01 40.11522 43.70842 22794 ft 361 kts 270°
2026-04-22 08:01 40.11547 43.67549 23423 ft 363 kts 270°
2026-04-22 08:01 40.11519 43.64242 23956 ft 365 kts 268°
2026-04-22 08:02 40.11385 43.60919 24429 ft 368 kts 266°
2026-04-22 08:02 40.11191 43.57580 24885 ft 370 kts 265°
2026-04-22 08:02 40.10975 43.54220 25327 ft 372 kts 265°
2026-04-22 08:02 40.10757 43.50836 25768 ft 375 kts 265°
2026-04-22 08:03 40.10549 43.47434 26212 ft 377 kts 265°
2026-04-22 08:03 40.10348 43.44008 26644 ft 379 kts 266°
2026-04-22 08:03 40.10156 43.40563 27064 ft 382 kts 266°
2026-04-22 08:03 40.09969 43.37094 27487 ft 384 kts 266°
2026-04-22 08:04 40.09783 43.33607 27895 ft 387 kts 266°
2026-04-22 08:04 40.09594 43.30095 28308 ft 389 kts 266°
2026-04-22 08:04 40.09398 43.26561 28711 ft 391 kts 266°
2026-04-22 08:04 40.09197 43.23012 29109 ft 393 kts 266°
2026-04-22 08:05 40.08995 43.19438 29525 ft 396 kts 265°
2026-04-22 08:05 40.08790 43.15846 29948 ft 398 kts 265°
2026-04-22 08:05 40.08583 43.12234 30292 ft 400 kts 266°
2026-04-22 08:05 40.08376 43.08600 30609 ft 402 kts 265°
2026-04-22 08:06 40.08167 43.04946 30923 ft 405 kts 265°
2026-04-22 08:06 40.07953 43.01270 31233 ft 407 kts 265°
2026-04-22 08:06 40.07734 42.97576 31621 ft 408 kts 265°
2026-04-22 08:06 40.07518 42.93942 32052 ft 407 kts 265°
2026-04-22 08:07 40.07298 42.90259 32478 ft 407 kts 266°
2026-04-22 08:07 40.07080 42.86582 32909 ft 406 kts 266°
2026-04-22 08:07 40.06861 42.82906 33333 ft 406 kts 266°
2026-04-22 08:07 40.06643 42.79234 33775 ft 405 kts 266°
2026-04-22 08:08 40.06425 42.75569 34182 ft 405 kts 266°
2026-04-22 08:08 40.06206 42.71910 34532 ft 404 kts 266°
2026-04-22 08:08 40.05988 42.68258 34924 ft 403 kts 265°
2026-04-22 08:08 40.05769 42.64622 35313 ft 401 kts 265°
2026-04-22 08:09 40.05549 42.60998 35668 ft 400 kts 265°
2026-04-22 08:09 40.05328 42.57381 36011 ft 399 kts 265°
2026-04-22 08:09 40.05103 42.53773 36347 ft 399 kts 265°
2026-04-22 08:09 40.04877 42.50168 36675 ft 398 kts 265°
2026-04-22 08:10 40.04649 42.46575 37000 ft 397 kts 265°
2026-04-22 08:10 40.04421 42.42984 37301 ft 397 kts 265°
2026-04-22 08:10 40.04189 42.39405 37617 ft 396 kts 265°
2026-04-22 08:10 40.03951 42.35827 37903 ft 396 kts 265°
2026-04-22 08:11 40.03459 42.28665 37994 ft 396 kts 265°
2026-04-22 08:11 40.02954 42.21504 37984 ft 396 kts 265°
2026-04-22 08:12 40.02450 42.14346 37993 ft 396 kts 265°
2026-04-22 08:12 40.01948 42.07190 37993 ft 396 kts 265°
2026-04-22 08:13 40.01442 42.00037 37995 ft 396 kts 265°
2026-04-22 08:13 40.00929 41.92876 38003 ft 397 kts 265°
2026-04-22 08:14 40.00415 41.85715 38005 ft 396 kts 264°
2026-04-22 08:14 39.99894 41.78558 38007 ft 396 kts 264°
2026-04-22 08:15 39.99371 41.71402 38006 ft 396 kts 265°
2026-04-22 08:15 39.98866 41.64305 38007 ft 396 kts 265°
2026-04-22 08:16 39.98360 41.57163 38009 ft 396 kts 265°
2026-04-22 08:16 39.97844 41.50018 38008 ft 396 kts 264°
2026-04-22 08:17 39.97318 41.42874 38015 ft 396 kts 264°
2026-04-22 08:17 39.96783 41.35728 38019 ft 396 kts 264°
2026-04-22 08:18 39.96250 41.28583 38020 ft 396 kts 264°
2026-04-22 08:18 39.95720 41.21445 38063 ft 396 kts 265°
2026-04-22 08:19 39.95683 41.14273 38060 ft 396 kts 269°
2026-04-22 08:19 39.95686 41.08313 38058 ft 396 kts 269°
2026-04-22 08:20 39.95677 41.01143 38041 ft 396 kts 269°
2026-04-22 08:20 39.95671 40.93967 38036 ft 396 kts 269°
2026-04-22 08:21 39.95665 40.86781 38029 ft 396 kts 269°
2026-04-22 08:21 39.95652 40.79596 38031 ft 396 kts 269°
2026-04-22 08:22 39.95634 40.72411 38017 ft 397 kts 269°
2026-04-22 08:22 39.95604 40.65223 38008 ft 397 kts 269°
2026-04-22 08:23 39.95579 40.58034 38009 ft 397 kts 269°
2026-04-22 08:23 39.95554 40.50846 37997 ft 397 kts 269°
2026-04-22 08:24 39.95522 40.43654 38001 ft 397 kts 269°
2026-04-22 08:24 39.95487 40.36512 38015 ft 397 kts 269°
2026-04-22 08:25 39.95443 40.29316 38009 ft 397 kts 269°
2026-04-22 08:25 39.95393 40.22129 38004 ft 397 kts 269°
2026-04-22 08:26 39.95342 40.14941 38007 ft 397 kts 269°
2026-04-22 08:26 39.95283 40.07749 38000 ft 397 kts 269°
2026-04-22 08:27 39.95226 40.00561 38002 ft 397 kts 269°
2026-04-22 08:27 39.95155 39.93373 38017 ft 397 kts 269°
2026-04-22 08:28 39.95084 39.86185 38010 ft 397 kts 269°
2026-04-22 08:28 39.95010 39.79001 38012 ft 396 kts 268°
2026-04-22 08:29 39.94928 39.71818 38014 ft 396 kts 268°
2026-04-22 08:29 39.94838 39.64642 38012 ft 396 kts 268°
2026-04-22 08:30 39.94744 39.57469 38003 ft 396 kts 268°
2026-04-22 08:30 39.94657 39.50299 38014 ft 396 kts 268°
2026-04-22 08:31 39.94563 39.43133 38014 ft 396 kts 268°
2026-04-22 08:32 39.94411 39.32438 37991 ft 395 kts 268°
2026-04-22 08:32 39.94301 39.25274 37990 ft 395 kts 268°
2026-04-22 08:33 39.94190 39.18111 37984 ft 396 kts 268°
2026-04-22 08:33 39.94078 39.10938 37972 ft 396 kts 268°
2026-04-22 08:34 39.93958 39.03761 37980 ft 396 kts 268°
2026-04-22 08:34 39.93844 38.96582 37972 ft 397 kts 268°
2026-04-22 08:35 39.93727 38.89394 37971 ft 397 kts 268°
2026-04-22 08:35 39.93409 38.82219 37973 ft 397 kts 264°
2026-04-22 08:36 39.92872 38.75067 37974 ft 397 kts 264°
2026-04-22 08:36 39.92335 38.67961 37973 ft 397 kts 264°
2026-04-22 08:37 39.91838 38.60802 37962 ft 397 kts 264°
2026-04-22 08:37 39.91353 38.53644 37965 ft 397 kts 264°
2026-04-22 08:38 39.90863 38.46490 37960 ft 397 kts 264°
2026-04-22 08:38 39.90370 38.39343 37957 ft 396 kts 264°
2026-04-22 08:39 39.89873 38.32194 37962 ft 397 kts 264°
2026-04-22 08:39 39.89363 38.25047 37958 ft 396 kts 264°
2026-04-22 08:40 39.88847 38.17903 37974 ft 396 kts 264°
2026-04-22 08:40 39.88330 38.10769 37965 ft 396 kts 264°
2026-04-22 08:41 39.87813 38.03626 37964 ft 396 kts 264°
2026-04-22 08:41 39.87288 37.96486 37952 ft 396 kts 264°
2026-04-22 08:42 39.86767 37.89339 37958 ft 397 kts 264°
2026-04-22 08:42 39.86246 37.82188 37959 ft 397 kts 264°
2026-04-22 08:43 39.85716 37.75043 37961 ft 397 kts 264°
2026-04-22 08:43 39.85179 37.67906 37958 ft 396 kts 264°
2026-04-22 08:44 39.84638 37.60776 37941 ft 396 kts 264°
2026-04-22 08:44 39.84094 37.53650 37952 ft 396 kts 264°
2026-04-22 08:45 39.83544 37.46529 37945 ft 396 kts 264°
2026-04-22 08:45 39.82992 37.39408 37951 ft 396 kts 264°
2026-04-22 08:46 39.82435 37.32333 37950 ft 396 kts 264°
2026-04-22 08:46 39.81867 37.25218 37968 ft 396 kts 264°
2026-04-22 08:47 39.81295 37.18102 37984 ft 396 kts 264°
2026-04-22 08:47 39.80724 37.10988 38004 ft 396 kts 264°
2026-04-22 08:48 39.80148 37.03873 38025 ft 396 kts 264°
2026-04-22 08:48 39.79564 36.96762 38029 ft 396 kts 264°
2026-04-22 08:49 39.78981 36.89656 38007 ft 396 kts 266°
2026-04-22 08:49 39.78894 36.82499 38019 ft 396 kts 269°
2026-04-22 08:50 39.78852 36.75327 38013 ft 397 kts 269°
2026-04-22 08:50 39.78800 36.68148 37994 ft 397 kts 269°
2026-04-22 08:51 39.78741 36.60968 37974 ft 397 kts 269°
2026-04-22 08:51 39.78670 36.53787 37922 ft 397 kts 269°
2026-04-22 08:52 39.78599 36.46609 37926 ft 397 kts 269°
2026-04-22 08:52 39.78530 36.39432 37939 ft 397 kts 269°
2026-04-22 08:53 39.78454 36.32264 37930 ft 396 kts 269°
2026-04-22 08:53 39.78368 36.25109 37934 ft 396 kts 268°
2026-04-22 08:54 39.78016 36.17981 37931 ft 395 kts 264°
2026-04-22 08:54 39.77403 36.10892 37927 ft 394 kts 263°
2026-04-22 08:55 39.76778 36.03807 37934 ft 394 kts 264°
2026-04-22 08:55 39.76210 35.96720 37936 ft 394 kts 264°
2026-04-22 08:56 39.75656 35.89627 37923 ft 394 kts 264°
2026-04-22 08:56 39.75100 35.82543 37919 ft 394 kts 264°
2026-04-22 08:57 39.74536 35.75465 37921 ft 394 kts 264°
2026-04-22 08:57 39.73960 35.68386 37928 ft 394 kts 264°
2026-04-22 08:58 39.73382 35.61308 37919 ft 394 kts 264°
2026-04-22 08:58 39.72805 35.54227 37930 ft 394 kts 263°
2026-04-22 08:59 39.72228 35.47193 37916 ft 394 kts 263°
2026-04-22 08:59 39.71633 35.40109 37916 ft 395 kts 263°
2026-04-22 09:00 39.71031 35.33020 37924 ft 395 kts 263°
2026-04-22 09:00 39.70430 35.25932 37926 ft 395 kts 263°
2026-04-22 09:01 39.69827 35.18838 37933 ft 395 kts 263°
2026-04-22 09:01 39.69214 35.11748 37936 ft 395 kts 263°
2026-04-22 09:02 39.68594 35.04649 37932 ft 396 kts 263°
2026-04-22 09:02 39.67973 34.97555 37928 ft 396 kts 263°
2026-04-22 09:03 39.67348 34.90451 37930 ft 396 kts 263°
2026-04-22 09:03 39.66720 34.83348 37930 ft 396 kts 263°
2026-04-22 09:04 39.66090 34.76245 37933 ft 396 kts 263°
2026-04-22 09:04 39.65452 34.69142 37954 ft 396 kts 263°
2026-04-22 09:05 39.64803 34.62042 37948 ft 396 kts 263°
2026-04-22 09:05 39.64154 34.54949 37934 ft 396 kts 263°
2026-04-22 09:06 39.63504 34.47868 37934 ft 395 kts 263°
2026-04-22 09:06 39.62850 34.40793 37932 ft 395 kts 263°
2026-04-22 09:07 39.62201 34.33774 37936 ft 395 kts 262°
2026-04-22 09:07 39.61541 34.26713 37936 ft 394 kts 263°
2026-04-22 09:08 39.60878 34.19656 37941 ft 394 kts 262°
2026-04-22 09:08 39.60203 34.12608 37926 ft 394 kts 262°
2026-04-22 09:09 39.59527 34.05563 37930 ft 394 kts 263°
2026-04-22 09:09 39.58853 33.98526 37931 ft 393 kts 262°
2026-04-22 09:10 39.58171 33.91492 37936 ft 393 kts 262°
2026-04-22 09:10 39.57605 33.85638 37932 ft 394 kts 262°
2026-04-22 09:11 39.56916 33.78599 37933 ft 394 kts 262°
2026-04-22 09:11 39.56225 33.71556 37933 ft 394 kts 262°
2026-04-22 09:12 39.55525 33.64513 37938 ft 394 kts 262°
2026-04-22 09:12 39.54820 33.57465 37922 ft 395 kts 262°
2026-04-22 09:13 39.54113 33.50410 37924 ft 395 kts 262°
2026-04-22 09:13 39.53397 33.43349 37935 ft 395 kts 262°
2026-04-22 09:14 39.52679 33.36286 37932 ft 396 kts 262°
2026-04-22 09:14 39.51957 33.29221 37935 ft 396 kts 262°
2026-04-22 09:15 39.51228 33.22157 37921 ft 396 kts 262°
2026-04-22 09:15 39.50496 33.15090 37934 ft 396 kts 262°
2026-04-22 09:16 39.49755 33.08020 37933 ft 396 kts 262°
2026-04-22 09:16 39.49008 33.00958 37929 ft 396 kts 262°
2026-04-22 09:17 39.48258 32.93948 37924 ft 396 kts 262°
2026-04-22 09:17 39.47505 32.86898 37939 ft 396 kts 262°
2026-04-22 09:18 39.46757 32.79843 37911 ft 396 kts 262°
2026-04-22 09:18 39.46012 32.72793 37914 ft 395 kts 262°
2026-04-22 09:19 39.45259 32.65744 37915 ft 395 kts 262°
2026-04-22 09:19 39.44498 32.58699 37929 ft 395 kts 262°
2026-04-22 09:20 39.43683 32.51661 37922 ft 396 kts 257°
2026-04-22 09:20 39.41842 32.44955 37918 ft 396 kts 250°
2026-04-22 09:21 39.39489 32.38515 37898 ft 399 kts 237°
2026-04-22 09:21 39.37691 32.35769 37900 ft 403 kts 226°
2026-04-22 09:21 39.35474 32.33516 37901 ft 409 kts 216°
2026-04-22 09:22 39.30388 32.30113 37897 ft 413 kts 211°
2026-04-22 09:22 39.25251 32.26780 37891 ft 414 kts 211°
2026-04-22 09:23 39.20109 32.23440 37906 ft 414 kts 211°
2026-04-22 09:23 39.15006 32.20121 37914 ft 414 kts 212°
2026-04-22 09:24 39.09856 32.16783 37910 ft 415 kts 211°
2026-04-22 09:24 39.04706 32.13447 37910 ft 414 kts 211°
2026-04-22 09:25 38.99557 32.10124 37922 ft 414 kts 211°
2026-04-22 09:25 38.94410 32.06810 37941 ft 414 kts 212°
2026-04-22 09:26 38.89259 32.03500 37920 ft 414 kts 211°
2026-04-22 09:26 38.84111 32.00192 37926 ft 414 kts 212°
2026-04-22 09:27 38.78959 31.96874 37928 ft 414 kts 211°
2026-04-22 09:27 38.73807 31.93569 37917 ft 414 kts 212°
2026-04-22 09:28 38.68654 31.90270 37921 ft 414 kts 211°
2026-04-22 09:28 38.63496 31.86976 37932 ft 415 kts 211°
2026-04-22 09:29 38.58328 31.83698 37915 ft 414 kts 211°
2026-04-22 09:29 38.53162 31.80413 37929 ft 415 kts 212°
2026-04-22 09:30 38.48032 31.77146 37950 ft 415 kts 212°
2026-04-22 09:30 38.42864 31.73861 37938 ft 415 kts 212°
2026-04-22 09:31 38.37696 31.70588 37951 ft 415 kts 212°
2026-04-22 09:31 38.32528 31.67321 37955 ft 415 kts 212°
2026-04-22 09:32 38.27359 31.64060 37962 ft 414 kts 212°
2026-04-22 09:32 38.22193 31.60802 37968 ft 414 kts 212°
2026-04-22 09:33 38.17027 31.57546 37964 ft 414 kts 212°
2026-04-22 09:33 38.11860 31.54300 37967 ft 414 kts 212°
2026-04-22 09:34 38.06665 31.51121 37968 ft 415 kts 211°
2026-04-22 09:34 38.01445 31.48003 37980 ft 415 kts 211°
2026-04-22 09:35 37.93626 31.43327 37979 ft 414 kts 211°
2026-04-22 09:35 37.88419 31.40196 37971 ft 414 kts 211°
2026-04-22 09:36 37.83213 31.37074 37979 ft 414 kts 211°
2026-04-22 09:36 37.78037 31.33981 37984 ft 414 kts 211°
2026-04-22 09:37 37.72824 31.30868 37969 ft 414 kts 211°
2026-04-22 09:37 37.67606 31.27759 37979 ft 415 kts 211°
2026-04-22 09:38 37.62373 31.24646 37986 ft 415 kts 211°
2026-04-22 09:38 37.57154 31.21546 37979 ft 415 kts 211°
2026-04-22 09:39 37.51939 31.18454 38007 ft 414 kts 211°
2026-04-22 09:39 37.46730 31.15369 37998 ft 413 kts 210°
2026-04-22 09:40 37.41531 31.12285 38011 ft 413 kts 211°
2026-04-22 09:40 37.36324 31.09216 37994 ft 413 kts 211°
2026-04-22 09:41 37.31222 31.05946 38005 ft 411 kts 214°
2026-04-22 09:41 37.26223 31.02477 38010 ft 410 kts 214°
2026-04-22 09:42 37.21224 30.99015 37986 ft 411 kts 214°
2026-04-22 09:42 37.16196 30.95606 38005 ft 411 kts 213°
2026-04-22 09:43 37.11182 30.92251 38015 ft 411 kts 213°
2026-04-22 09:43 37.06132 30.88870 38021 ft 411 kts 213°
2026-04-22 09:44 37.01085 30.85482 38012 ft 412 kts 214°
2026-04-22 09:44 36.96040 30.82096 38019 ft 412 kts 213°
2026-04-22 09:45 36.90560 30.79776 38021 ft 426 kts 193°
2026-04-22 09:45 36.84555 30.79710 37999 ft 434 kts 185°
2026-04-22 09:46 36.78517 30.79928 37998 ft 434 kts 185°
2026-04-22 09:46 36.72476 30.80127 38005 ft 435 kts 185°
2026-04-22 09:47 36.66431 30.80326 38008 ft 435 kts 185°
2026-04-22 09:47 36.60380 30.80539 37990 ft 435 kts 184°
2026-04-22 09:48 36.54327 30.80754 37998 ft 435 kts 184°
2026-04-22 09:48 36.48269 30.80967 38003 ft 435 kts 185°
2026-04-22 09:49 36.42216 30.81168 38005 ft 435 kts 185°
2026-04-22 09:49 36.36158 30.81370 38009 ft 435 kts 185°
2026-04-22 09:50 36.30102 30.81568 38005 ft 435 kts 185°
2026-04-22 09:50 36.24046 30.81768 38005 ft 435 kts 185°
2026-04-22 09:51 36.17993 30.81974 37984 ft 435 kts 184°
2026-04-22 09:51 36.11942 30.82176 37990 ft 435 kts 185°
2026-04-22 09:52 36.05888 30.82380 37993 ft 435 kts 184°
2026-04-22 09:52 35.99871 30.82630 37979 ft 436 kts 183°
2026-04-22 09:53 35.93807 30.83011 37989 ft 437 kts 183°
2026-04-22 09:53 35.87735 30.83419 37995 ft 437 kts 183°
2026-04-22 09:54 35.81653 30.83809 37581 ft 439 kts 183°
2026-04-22 09:54 35.78566 30.83990 36044 ft 453 kts 182°
2026-04-22 09:54 35.75403 30.84171 34952 ft 455 kts 182°
2026-04-22 09:55 35.72255 30.84355 34207 ft 447 kts 182°
2026-04-22 09:55 35.69205 30.84543 33713 ft 432 kts 181°
2026-04-22 09:55 35.66221 30.85047 33217 ft 435 kts 170°
2026-04-22 09:55 35.63363 30.86307 32716 ft 439 kts 157°
2026-04-22 09:56 35.60775 30.88306 32212 ft 442 kts 144°
2026-04-22 09:56 35.58581 30.90953 31720 ft 444 kts 131°
2026-04-22 09:56 35.56820 30.94063 31220 ft 443 kts 125°
2026-04-22 09:56 35.55138 30.97222 30726 ft 441 kts 125°
2026-04-22 09:57 35.53461 31.00362 30229 ft 439 kts 125°
2026-04-22 09:57 35.51789 31.03478 29729 ft 435 kts 125°
2026-04-22 09:57 35.50133 31.06567 29265 ft 431 kts 125°
2026-04-22 09:57 35.48489 31.09628 28816 ft 428 kts 125°
2026-04-22 09:58 35.46856 31.12664 28374 ft 425 kts 125°
2026-04-22 09:58 35.45236 31.15675 27934 ft 422 kts 125°
2026-04-22 09:58 35.43624 31.18671 27495 ft 420 kts 125°
2026-04-22 09:58 35.42020 31.21650 27060 ft 418 kts 125°
2026-04-22 09:59 35.40419 31.24614 26626 ft 416 kts 125°
2026-04-22 09:59 35.38820 31.27568 26175 ft 415 kts 125°
2026-04-22 09:59 35.37224 31.30517 25722 ft 415 kts 125°
2026-04-22 09:59 35.35633 31.33463 25267 ft 414 kts 125°
2026-04-22 10:00 35.34045 31.36408 24793 ft 414 kts 125°
2026-04-22 10:00 35.32456 31.39351 24320 ft 414 kts 125°
2026-04-22 10:00 35.30865 31.42292 23848 ft 414 kts 125°
2026-04-22 10:00 35.29279 31.45218 23361 ft 412 kts 125°
2026-04-22 10:01 35.27719 31.48089 23005 ft 407 kts 125°
2026-04-22 10:01 35.26663 31.50031 22728 ft 404 kts 125°
2026-04-22 10:01 35.24602 31.53814 22059 ft 402 kts 125°
2026-04-22 10:01 35.23058 31.56648 21590 ft 399 kts 125°
2026-04-22 10:02 35.21521 31.59461 21120 ft 396 kts 125°
2026-04-22 10:02 35.19996 31.62252 20638 ft 393 kts 125°
2026-04-22 10:02 35.18493 31.65008 19931 ft 387 kts 125°
2026-04-22 10:02 35.17497 31.66834 19579 ft 378 kts 125°
2026-04-22 10:03 35.16069 31.69458 19134 ft 364 kts 125°
2026-04-22 10:03 35.14692 31.71985 18696 ft 352 kts 125°
2026-04-22 10:03 35.13345 31.74450 18257 ft 349 kts 125°
2026-04-22 10:03 35.12014 31.76880 17797 ft 349 kts 125°
2026-04-22 10:04 35.10664 31.79338 17372 ft 348 kts 125°
2026-04-22 10:04 35.09316 31.81791 16936 ft 347 kts 125°
2026-04-22 10:04 35.07973 31.84235 16513 ft 347 kts 125°
2026-04-22 10:04 35.06629 31.86677 16082 ft 346 kts 125°
2026-04-22 10:05 35.05298 31.89103 15657 ft 340 kts 125°
2026-04-22 10:05 35.03986 31.91495 15248 ft 340 kts 125°
2026-04-22 10:05 35.02666 31.93891 14824 ft 341 kts 125°
2026-04-22 10:05 35.01345 31.96292 14407 ft 341 kts 125°
2026-04-22 10:06 35.00032 31.98677 14151 ft 335 kts 125°
2026-04-22 10:06 34.98721 32.01058 13657 ft 338 kts 125°
2026-04-22 10:06 34.97430 32.03400 13319 ft 328 kts 125°
2026-04-22 10:06 34.96165 32.05691 12736 ft 324 kts 125°
2026-04-22 10:07 34.94911 32.07961 12313 ft 322 kts 125°
2026-04-22 10:07 34.93663 32.10214 11930 ft 319 kts 125°
2026-04-22 10:07 34.92411 32.12435 11547 ft 316 kts 129°
2026-04-22 10:07 34.91012 32.14486 11168 ft 314 kts 131°
2026-04-22 10:08 34.89603 32.16529 10796 ft 315 kts 131°
2026-04-22 10:08 34.88196 32.18571 10411 ft 314 kts 131°
2026-04-22 10:08 34.86807 32.20589 10149 ft 309 kts 131°
2026-04-22 10:08 34.85422 32.22603 9784 ft 308 kts 131°
2026-04-22 10:09 34.84059 32.24585 9531 ft 302 kts 131°
2026-04-22 10:09 34.82714 32.26536 9213 ft 299 kts 131°
2026-04-22 10:09 34.81383 32.28465 8893 ft 296 kts 131°
2026-04-22 10:09 34.80063 32.30376 8576 ft 294 kts 131°
2026-04-22 10:10 34.78754 32.32267 8255 ft 291 kts 131°
2026-04-22 10:10 34.77454 32.34144 7935 ft 288 kts 131°
2026-04-22 10:10 34.76174 32.35992 7355 ft 285 kts 131°
2026-04-22 10:10 34.74901 32.37830 6761 ft 283 kts 131°
2026-04-22 10:11 34.73643 32.39647 6336 ft 279 kts 131°
2026-04-22 10:11 34.72397 32.41444 5962 ft 277 kts 131°
2026-04-22 10:11 34.71159 32.43225 5617 ft 275 kts 131°
2026-04-22 10:11 34.69932 32.44993 5270 ft 273 kts 131°
2026-04-22 10:12 34.68720 32.46741 4954 ft 264 kts 130°
2026-04-22 10:12 34.67597 32.48359 4805 ft 245 kts 131°
2026-04-22 10:12 34.66521 32.49911 4404 ft 237 kts 131°
2026-04-22 10:12 34.65462 32.51435 4018 ft 235 kts 132°
2026-04-22 10:13 34.64407 32.52952 3702 ft 235 kts 131°
2026-04-22 10:13 34.63354 32.54467 3402 ft 235 kts 131°
2026-04-22 10:13 34.62307 32.55970 3299 ft 233 kts 131°
2026-04-22 10:13 34.61257 32.57479 3207 ft 234 kts 131°
2026-04-22 10:14 34.60209 32.58986 3108 ft 233 kts 131°
2026-04-22 10:14 34.59183 32.60462 2978 ft 224 kts 130°
2026-04-22 10:14 34.58418 32.62056 2851 ft 216 kts 110°
2026-04-22 10:14 34.58162 32.63850 2794 ft 217 kts 89°
2026-04-22 10:15 34.58425 32.65646 2722 ft 217 kts 68°
2026-04-22 10:15 34.59179 32.67227 2638 ft 217 kts 49°
2026-04-22 10:15 34.60308 32.68397 2540 ft 210 kts 29°
2026-04-22 10:15 34.61620 32.69017 2452 ft 197 kts 10°
2026-04-22 10:16 34.62957 32.69100 2384 ft 191 kts 351°
2026-04-22 10:16 34.64221 32.68701 2313 ft 187 kts 334°
2026-04-22 10:16 34.65317 32.67870 2234 ft 186 kts 317°
2026-04-22 10:16 34.66154 32.66704 2149 ft 181 kts 299°
2026-04-22 10:17 34.66675 32.65329 2149 ft 179 kts 287°
2026-04-22 10:17 34.67101 32.63907 2125 ft 180 kts 288°
2026-04-22 10:17 34.67536 32.62488 2107 ft 179 kts 289°
2026-04-22 10:17 34.67961 32.61111 1949 ft 168 kts 288°
2026-04-22 10:18 34.68349 32.59849 1765 ft 150 kts 288°
2026-04-22 10:18 34.68696 32.58716 1584 ft 137 kts 289°
2026-04-22 10:18 34.69019 32.57656 1410 ft 132 kts 288°
2026-04-22 10:18 34.69336 32.56619 1232 ft 130 kts 286°
2026-04-22 10:19 34.69647 32.55598 1047 ft 129 kts 287°
2026-04-22 10:19 34.69959 32.54575 882 ft 128 kts 289°
2026-04-22 10:19 34.70267 32.53568 724 ft 127 kts 288°
2026-04-22 10:19 34.70572 32.52565 565 ft 128 kts 289°
2026-04-22 10:20 34.70882 32.51540 369 ft 129 kts 290°
2026-04-22 10:20 34.71189 32.50536 205 ft 128 kts 289°
2026-04-22 10:20 34.71503 32.49521 56 ft 121 kts 288°
2026-04-22 10:20 34.71740 32.48717 47 ft 79 kts 289°
2026-04-22 10:21 34.71810 32.48440 47 ft 11 kts 244°
2026-04-22 10:21 34.71747 32.48393 46 ft 13 kts 201°
2026-04-22 10:21 34.71650 32.48350 46 ft 17 kts 200°
2026-04-22 10:21 34.71534 32.48298 44 ft 15 kts 200°
2026-04-22 10:22 34.71430 32.48262 44 ft 16 kts 179°
2026-04-22 10:22 34.71320 32.48294 46 ft 12 kts 164°
2026-04-22 10:22 34.71297 32.48302 46 ft 0 kts 164°